Regional Weather Roundup
Issued by NWS

Home | Current Version | Previous Version | Graphics & Text | Print | Product List | Glossary On
Versions: 1 2 3 4 5 6 7 8 9 10 11 12 13 14 15 16 17 18 19 20 21 22 23 24 25 26 27 28 29 30 31 32 33 34 35 36 37 38 39 40 41 42 43 44 45 46 47 48 49 50
000
ASUS43 KBIS 170510
RWRND

NORTH DAKOTA REGIONAL WEATHER ROUNDUP
NATIONAL WEATHER SERVICE BISMARCK ND
1200 AM CDT TUE OCT 17 2017

NOTE: "FAIR" INDICATES FEW OR NO CLOUDS BELOW 12,000 FEET WITH NO
SIGNIFICANT WEATHER AND/OR OBSTRUCTIONS TO VISIBILITY.


NDZ001>003-009>011-017-170600-
NORTHWEST NORTH DAKOTA

CITY           SKY/WX    TMP DP  RH WIND       PRES   REMARKS
WILLISTON      CLEAR     44  32  62 SW6       29.92F
MINOT          CLOUDY    50  33  52 SW12      29.90F
MINOT AFB      PTCLDY    45  32  60 W9        29.88F
$$

NDZ018>021-031>035-040>046-170600-
SOUTHWEST NORTH DAKOTA

CITY           SKY/WX    TMP DP  RH WIND       PRES   REMARKS
BISMARCK       CLOUDY    43  34  70 CALM      29.99R
DICKINSON      CLEAR     42  29  59 SW6       29.98S
GARRISON         N/A     45  36  70 W6        29.94F
HETTINGER ARPT CLEAR     36  26  67 CALM      30.04S
$$

NDZ004>008-012>016-024-026-027-054-170600-
NORTHEAST NORTH DAKOTA

CITY           SKY/WX    TMP DP  RH WIND       PRES   REMARKS
GRAND FORKS    CLOUDY    47  36  65 W7        29.89S
GRND FRKS AFB  CLOUDY    47  34  62 W5        29.89S
DEVILS LAKE    CLOUDY    43  37  79 CALM      29.92S
$$

NDZ022-023-025-028>030-036>039-047>053-170600-
SOUTHEAST NORTH DAKOTA

CITY           SKY/WX    TMP DP  RH WIND       PRES   REMARKS
FARGO          CLOUDY    47  38  71 SW3       29.92R
JAMESTOWN      CLOUDY    46  33  60 W6        29.93F
$$





USA.gov is the U.S. government's official web portal to all federal, state and local government web resources and services.